| time (UTC) | temp C | wind direction | speed KPH | gust KPH | rain 1hr cm | rain 24hr cm | rain mn cm | humidity % | barometer mb |
| 20260903073335 | 22 | 101 | 0.0 | 0.0 | 0.00 | 0.00 | 0.00 | 95 | 1016.0 |
| 20260903072831 | 22 | 101 | 0.0 | 0.0 | 0.00 | 0.00 | 0.00 | 95 | 1015.9 |
| 20260903072327 | 22 | 101 | 0.0 | 0.0 | 0.00 | 0.00 | 0.00 | 95 | 1015.8 |
| 20260903071824 | 22 | 101 | 0.0 | 0.0 | 0.00 | 0.00 | 0.00 | 95 | 1015.9 |
| 20260903071319 | 22 | 101 | 0.0 | 0.0 | 0.00 | 0.00 | 0.00 | 95 | 1016.0 |
| 20260903070814 | 22 | 101 | 0.0 | 0.0 | 0.00 | 0.00 | 0.00 | 94 | 1016.0 |
| 20260903070309 | 22 | 101 | 0.0 | 0.0 | 0.00 | 0.00 | 0.00 | 94 | 1016.0 |
| 20260903065804 | 23 | 101 | 0.0 | 0.0 | 0.00 | 0.00 | 0.00 | 94 | 1016.0 |
| 20260903065306 | 23 | 101 | 0.0 | 0.0 | 0.00 | 0.00 | 0.00 | 94 | 1016.1 |
| 20260903064802 | 23 | 101 | 0.0 | 0.0 | 0.00 | 0.00 | 0.00 | 93 | 1016.1 |
| 20260903064258 | 23 | 101 | 0.0 | 0.0 | 0.00 | 0.00 | 0.00 | 93 | 1016.1 |
| 20260903063754 | 23 | 101 | 0.0 | 0.0 | 0.00 | 0.00 | 0.00 | 93 | 1016.1 |
| 20260903063248 | 23 | 101 | 0.0 | 0.0 | 0.00 | 0.00 | 0.00 | 93 | 1016.2 |
| 20260903062739 | 23 | 101 | 0.0 | 0.0 | 0.00 | 0.00 | 0.00 | 93 | 1015.9 |
| 20260903062238 | 23 | 101 | 0.0 | 0.0 | 0.00 | 0.00 | 0.00 | 93 | 1016.2 |
| 20260903061735 | 23 | 101 | 0.0 | 0.0 | 0.00 | 0.00 | 0.00 | 93 | 1016.2 |
| 20260903061233 | 23 | 101 | 0.0 | 0.0 | 0.00 | 0.00 | 0.00 | 93 | 1016.1 |
| 20260903060729 | 23 | 101 | 0.0 | 0.0 | 0.00 | 0.00 | 0.00 | 92 | 1016.1 |
| 20260903060229 | 23 | 101 | 0.0 | 0.0 | 0.00 | 0.00 | 0.00 | 92 | 1016.1 |
| 20260903055726 | 23 | 101 | 0.0 | 0.0 | 0.00 | 0.00 | 0.00 | 92 | 1016.1 |
| 20260903055225 | 23 | 101 | 0.0 | 0.0 | 0.00 | 0.00 | 0.00 | 92 | 1016.1 |
| 20260903054720 | 23 | 101 | 0.0 | 0.0 | 0.00 | 0.00 | 0.00 | 91 | 1016.2 |
| 20260903054215 | 23 | 101 | 0.0 | 0.0 | 0.00 | 0.00 | 0.00 | 91 | 1016.2 |
| 20260903053707 | 23 | 106 | 0.0 | 0.0 | 0.00 | 0.00 | 0.00 | 91 | 1016.2 |
| 20260903053206 | 23 | 106 | 0.0 | 0.0 | 0.00 | 0.00 | 0.00 | 91 | 1015.9 |
| 20260903052703 | 23 | 100 | 0.0 | 0.0 | 0.00 | 0.00 | 0.00 | 91 | 1016.1 |
| 20260903052158 | 23 | 97 | 0.0 | 0.0 | 0.00 | 0.00 | 0.00 | 91 | 1015.9 |
| 20260903051653 | 23 | 97 | 0.0 | 0.0 | 0.00 | 0.00 | 0.00 | 90 | 1015.8 |
| 20260903051148 | 23 | 97 | 0.0 | 0.0 | 0.00 | 0.00 | 0.00 | 90 | 1015.5 |
| 20260903050644 | 23 | 96 | 0.0 | 0.0 | 0.00 | 0.00 | 0.00 | 90 | 1015.7 |
| 20260903050137 | 23 | 96 | 0.0 | 0.0 | 0.00 | 0.00 | 0.00 | 91 | 1015.8 |
| 20260903045637 | 23 | 101 | 0.0 | 0.0 | 0.00 | 0.00 | 0.00 | 92 | 1015.5 |
| 20260903045134 | 23 | 101 | 0.0 | 0.0 | 0.00 | 0.00 | 0.00 | 92 | 1015.8 |
| 20260903044629 | 23 | 101 | 0.0 | 0.0 | 0.00 | 0.00 | 0.00 | 92 | 1015.4 |
| 20260903044125 | 23 | 101 | 0.0 | 0.0 | 0.00 | 0.00 | 0.00 | 92 | 1015.5 |
| 20260903043622 | 23 | 101 | 0.0 | 0.0 | 0.00 | 0.00 | 0.00 | 92 | 1015.3 |
| 20260903043120 | 23 | 101 | 0.0 | 0.0 | 0.00 | 0.00 | 0.00 | 91 | 1015.3 |
| 20260903042620 | 23 | 101 | 0.0 | 0.0 | 0.00 | 0.00 | 0.00 | 91 | 1015.2 |
| 20260903042115 | 23 | 101 | 0.0 | 0.0 | 0.00 | 0.00 | 0.00 | 90 | 1015.5 |
| 20260903041612 | 23 | 101 | 0.0 | 0.0 | 0.00 | 0.00 | 0.00 | 90 | 1015.4 |
| 20260903041108 | 23 | 101 | 0.0 | 0.0 | 0.00 | 0.00 | 0.00 | 90 | 1015.4 |
| 20260903040606 | 23 | 101 | 0.0 | 0.0 | 0.00 | 0.00 | 0.00 | 89 | 1015.3 |
| 20260903040103 | 23 | 101 | 0.0 | 0.0 | 0.00 | 0.00 | 0.00 | 90 | 1015.4 |
| 20260903035558 | 23 | 101 | 0.0 | 0.0 | 0.00 | 0.00 | 0.00 | 89 | 1015.5 |
| 20260903035054 | 23 | 101 | 0.0 | 0.0 | 0.00 | 0.00 | 0.00 | 89 | 1015.3 |
| 20260903034548 | 23 | 101 | 0.0 | 0.0 | 0.00 | 0.00 | 0.00 | 89 | 1015.2 |
| 20260903034044 | 23 | 98 | 0.0 | 0.0 | 0.00 | 0.00 | 0.00 | 89 | 1015.3 |
| 20260903033538 | 23 | 96 | 0.0 | 0.0 | 0.00 | 0.00 | 0.00 | 89 | 1015.2 |
| 20260903033034 | 23 | 96 | 0.0 | 0.0 | 0.00 | 0.00 | 0.00 | 89 | 1015.3 |
| 20260903032529 | 23 | 103 | 0.0 | 0.0 | 0.00 | 0.00 | 0.00 | 89 | 1015.5 |
| 20260903032024 | 23 | 103 | 0.0 | 0.0 | 0.00 | 0.00 | 0.00 | 89 | 1015.4 |
| 20260903031524 | 23 | 103 | 0.0 | 0.0 | 0.00 | 0.00 | 0.00 | 89 | 1015.5 |
| 20260903031019 | 23 | 103 | 0.0 | 0.0 | 0.00 | 0.00 | 0.00 | 89 | 1015.7 |
| 20260903030514 | 23 | 103 | 0.0 | 0.0 | 0.00 | 0.00 | 0.00 | 89 | 1015.9 |
| 20260903030011 | 23 | 103 | 0.0 | 0.0 | 0.00 | 0.00 | 0.00 | 89 | 1015.9 |
| 20260903025506 | 23 | 103 | 0.0 | 0.0 | 0.00 | 0.00 | 0.00 | 88 | 1015.8 |
| 20260903025001 | 24 | 103 | 0.0 | 0.0 | 0.00 | 0.00 | 0.00 | 88 | 1016.0 |
| 20260903024500 | 24 | 103 | 0.0 | 0.0 | 0.00 | 0.00 | 0.00 | 87 | 1016.2 |
| 20260903023955 | 24 | 100 | 0.0 | 0.0 | 0.00 | 0.00 | 0.00 | 87 | 1016.1 |
| 20260903023451 | 24 | 100 | 0.0 | 0.0 | 0.00 | 0.00 | 0.00 | 86 | 1016.2 |
| 20260903022946 | 24 | 100 | 0.0 | 0.0 | 0.00 | 0.00 | 0.00 | 86 | 1016.1 |
| 20260903022445 | 25 | 100 | 0.0 | 0.0 | 0.00 | 0.00 | 0.00 | 85 | 1016.2 |
| 20260903021943 | 25 | 99 | 0.0 | 0.0 | 0.00 | 0.00 | 0.00 | 84 | 1016.2 |
| 20260903021439 | 25 | 106 | 0.0 | 0.0 | 0.00 | 0.00 | 0.00 | 84 | 1016.0 |
| 20260903020934 | 25 | 97 | 0.0 | 0.0 | 0.00 | 0.00 | 0.00 | 84 | 1016.2 |
| 20260903020429 | 25 | 102 | 0.0 | 0.0 | 0.00 | 0.00 | 0.00 | 84 | 1016.1 |
| 20260903015924 | 25 | 98 | 0.0 | 0.0 | 0.00 | 0.00 | 0.00 | 84 | 1016.3 |
| 20260903015420 | 25 | 94 | 0.0 | 0.0 | 0.00 | 0.00 | 0.00 | 85 | 1016.1 |
| 20260903014916 | 25 | 100 | 0.0 | 0.0 | 0.00 | 0.00 | 0.00 | 85 | 1016.1 |
| 20260903014414 | 25 | 100 | 0.0 | 0.0 | 0.00 | 0.00 | 0.00 | 85 | 1016.1 |
| 20260903013910 | 25 | 100 | 0.0 | 0.0 | 0.00 | 0.00 | 0.00 | 85 | 1016.1 |
| 20260903013409 | 25 | 100 | 0.0 | 0.0 | 0.00 | 0.00 | 0.00 | 85 | 1016.2 |
| 20260903012909 | 25 | 100 | 0.0 | 0.0 | 0.00 | 0.00 | 0.00 | 84 | 1016.3 |
| 20260903012408 | 25 | 100 | 0.0 | 0.0 | 0.00 | 0.00 | 0.00 | 84 | 1016.2 |
| 20260903011907 | 25 | 100 | 0.0 | 0.0 | 0.00 | 0.00 | 0.00 | 85 | 1016.1 |
| 20260903011402 | 25 | 100 | 0.0 | 0.0 | 0.00 | 0.00 | 0.00 | 85 | 1016.0 |
| 20260903010857 | 25 | 100 | 0.0 | 0.0 | 0.00 | 0.00 | 0.00 | 84 | 1016.0 |
| 20260903010353 | 25 | 100 | 0.0 | 0.0 | 0.00 | 0.00 | 0.00 | 85 | 1016.1 |
| 20260903005850 | 25 | 100 | 0.0 | 0.0 | 0.00 | 0.00 | 0.00 | 85 | 1016.0 |
| 20260903005346 | 25 | 100 | 0.0 | 0.0 | 0.00 | 0.00 | 0.00 | 85 | 1015.9 |
| 20260903004843 | 25 | 100 | 0.0 | 0.0 | 0.00 | 0.00 | 0.00 | 85 | 1015.9 |
| 20260903004338 | 25 | 100 | 0.0 | 0.0 | 0.00 | 0.00 | 0.00 | 85 | 1015.9 |
| 20260903003833 | 25 | 100 | 0.0 | 0.0 | 0.00 | 0.00 | 0.00 | 86 | 1015.9 |
| 20260903003332 | 26 | 100 | 0.0 | 0.0 | 0.00 | 0.00 | 0.00 | 86 | 1015.7 |
| 20260903002832 | 26 | 100 | 0.0 | 0.0 | 0.00 | 0.00 | 0.00 | 84 | 1015.8 |
| 20260903002327 | 26 | 100 | 0.0 | 0.0 | 0.00 | 0.00 | 0.00 | 84 | 1015.7 |
| 20260903001822 | 26 | 100 | 0.0 | 0.0 | 0.00 | 0.00 | 0.00 | 83 | 1015.7 |
| 20260903001317 | 26 | 100 | 0.0 | 0.0 | 0.00 | 0.00 | 0.00 | 83 | 1015.5 |
| 20260903000812 | 26 | 100 | 0.0 | 0.0 | 0.00 | 0.00 | 0.00 | 82 | 1015.7 |
| 20260903000306 | 26 | 100 | 0.0 | 0.0 | 0.00 | 0.00 | 0.00 | 82 | 1015.8 |
| 20260902235804 | 27 | 100 | 0.0 | 0.0 | 0.00 | 0.00 | 0.00 | 82 | 1015.5 |
| 20260902235300 | 27 | 100 | 0.0 | 0.0 | 0.00 | 0.00 | 0.00 | 81 | 1015.5 |
| 20260902234754 | 27 | 100 | 0.0 | 0.0 | 0.00 | 0.00 | 0.00 | 80 | 1015.7 |
| 20260902234253 | 27 | 96 | 0.0 | 0.0 | 0.00 | 0.00 | 0.00 | 80 | 1015.5 |
| 20260902233747 | 27 | 96 | 0.0 | 0.0 | 0.00 | 0.00 | 0.00 | 79 | 1015.5 |
| 20260902233242 | 27 | 103 | 0.0 | 0.0 | 0.00 | 0.00 | 0.00 | 79 | 1015.5 |
| 20260902232741 | 27 | 99 | 0.0 | 0.0 | 0.00 | 0.00 | 0.00 | 78 | 1015.5 |
| 20260902232240 | 28 | 103 | 0.0 | 0.0 | 0.00 | 0.00 | 0.00 | 77 | 1015.5 |
| 20260902231740 | 28 | 103 | 0.0 | 0.0 | 0.00 | 0.00 | 0.00 | 77 | 1015.4 |
| 20260902231235 | 28 | 103 | 0.0 | 0.0 | 0.00 | 0.00 | 0.00 | 76 | 1015.5 |
| 20260902230735 | 28 | 103 | 0.0 | 0.0 | 0.00 | 0.00 | 0.00 | 76 | 1015.5 |
| 20260902230234 | 28 | 103 | 0.0 | 0.0 | 0.00 | 0.00 | 0.00 | 75 | 1015.5 |
| 20260902225729 | 28 | 110 | 0.0 | 0.0 | 0.00 | 0.00 | 0.00 | 75 | 1015.5 |
| 20260902225224 | 28 | 93 | 0.0 | 0.0 | 0.00 | 0.00 | 0.00 | 74 | 1015.5 |
| 20260902224722 | 28 | 102 | 0.0 | 0.0 | 0.00 | 0.00 | 0.00 | 74 | 1015.4 |
| 20260902224218 | 29 | 105 | 0.0 | 0.0 | 0.00 | 0.00 | 0.00 | 74 | 1015.5 |
| 20260902223714 | 29 | 102 | 0.0 | 0.0 | 0.00 | 0.00 | 0.00 | 74 | 1015.7 |
| 20260902223214 | 29 | 100 | 0.0 | 0.0 | 0.00 | 0.00 | 0.00 | 72 | 1015.7 |
| 20260902222713 | 29 | 99 | 0.0 | 0.0 | 0.00 | 0.00 | 0.00 | 72 | 1015.4 |
| 20260902222213 | 29 | 101 | 0.0 | 0.0 | 0.00 | 0.00 | 0.00 | 71 | 1015.3 |
| 20260902221707 | 30 | 121 | 0.0 | 1.6 | 0.00 | 0.00 | 0.00 | 73 | 1015.4 |
| 20260902221206 | 30 | 89 | 0.0 | 0.0 | 0.00 | 0.00 | 0.00 | 75 | 1015.5 |
| 20260902220703 | 30 | 94 | 0.0 | 0.0 | 0.00 | 0.00 | 0.00 | 73 | 1015.4 |
| 20260902220203 | 30 | 70 | 0.0 | 0.0 | 0.00 | 0.00 | 0.00 | 71 | 1015.4 |
| 20260902215658 | 31 | 105 | 0.0 | 0.0 | 0.00 | 0.00 | 0.00 | 70 | 1015.5 |
| 20260902215154 | 31 | 106 | 0.0 | 0.0 | 0.00 | 0.00 | 0.00 | 68 | 1015.8 |
| 20260902214649 | 30 | 107 | 0.0 | 0.0 | 0.00 | 0.00 | 0.00 | 69 | 1015.8 |
| 20260902214148 | 31 | 69 | 0.0 | 0.0 | 0.00 | 0.00 | 0.00 | 68 | 1015.7 |
| 20260902213643 | 31 | 108 | 0.0 | 0.0 | 0.00 | 0.00 | 0.00 | 67 | 1015.7 |
| 20260902213143 | 31 | 120 | 0.0 | 0.0 | 0.00 | 0.00 | 0.00 | 69 | 1015.8 |
| 20260902212638 | 31 | 88 | 0.0 | 1.6 | 0.00 | 0.00 | 0.00 | 67 | 1015.8 |
| 20260902212134 | 32 | 87 | 0.0 | 0.0 | 0.00 | 0.00 | 0.00 | 69 | 1015.8 |
| 20260902211631 | 32 | 106 | 0.0 | 0.0 | 0.00 | 0.00 | 0.00 | 64 | 1015.9 |
| 20260902211125 | 32 | 72 | 0.0 | 1.6 | 0.00 | 0.00 | 0.00 | 62 | 1015.8 |
| 20260902210625 | 32 | 73 | 1.6 | 1.6 | 0.00 | 0.00 | 0.00 | 63 | 1015.9 |
| 20260902210120 | 33 | 183 | 3.2 | 4.8 | 0.00 | 0.00 | 0.00 | 60 | 1016.1 |
| 20260902205619 | 33 | 109 | 0.0 | 0.0 | 0.00 | 0.00 | 0.00 | 62 | 1016.0 |
| 20260902205114 | 33 | 120 | 0.0 | 0.0 | 0.00 | 0.00 | 0.00 | 58 | 1016.0 |
| 20260902204608 | 33 | 126 | 0.0 | 0.0 | 0.00 | 0.00 | 0.00 | 67 | 1016.2 |
| 20260902204103 | 33 | 104 | 1.6 | 3.2 | 0.00 | 0.00 | 0.00 | 60 | 1016.1 |
| 20260902203558 | 33 | 299 | 3.2 | 3.2 | 0.00 | 0.00 | 0.00 | 59 | 1016.3 |
| 20260902203057 | 33 | 98 | 0.0 | 0.0 | 0.00 | 0.00 | 0.00 | 61 | 1016.2 |
| 20260902202553 | 33 | 169 | 0.0 | 1.6 | 0.00 | 0.00 | 0.00 | 63 | 1016.2 |
| 20260902202050 | 33 | 93 | 0.0 | 1.6 | 0.00 | 0.00 | 0.00 | 60 | 1016.3 |
| 20260902201545 | 33 | 211 | 1.6 | 1.6 | 0.00 | 0.00 | 0.00 | 59 | 1016.4 |
| 20260902201039 | 33 | 158 | 1.6 | 3.2 | 0.00 | 0.00 | 0.00 | 63 | 1016.3 |
| 20260902200534 | 33 | 116 | 0.0 | 0.0 | 0.00 | 0.00 | 0.00 | 60 | 1016.3 |
| 20260902200030 | 33 | 117 | 0.0 | 0.0 | 0.00 | 0.00 | 0.00 | 61 | 1016.3 |
| 20260902195526 | 33 | 151 | 1.6 | 3.2 | 0.00 | 0.00 | 0.00 | 57 | 1016.6 |
| 20260902195024 | 33 | 138 | 0.0 | 1.6 | 0.00 | 0.00 | 0.00 | 62 | 1016.5 |
| 20260902194524 | 33 | 141 | 1.6 | 1.6 | 0.00 | 0.00 | 0.00 | 58 | 1016.9 |
| 20260902194019 | 33 | 130 | 1.6 | 1.6 | 0.00 | 0.00 | 0.00 | 61 | 1016.7 |
| 20260902193515 | 33 | 158 | 3.2 | 3.2 | 0.00 | 0.00 | 0.00 | 61 | 1017.0 |
| 20260902193015 | 33 | 94 | 3.2 | 3.2 | 0.00 | 0.00 | 0.00 | 64 | 1016.7 |
| 20260902192514 | 33 | 312 | 1.6 | 1.6 | 0.00 | 0.00 | 0.00 | 65 | 1016.8 |
| 20260902192013 | 33 | 122 | 0.0 | 0.0 | 0.00 | 0.00 | 0.00 | 60 | 1016.7 |
| 20260902191509 | 33 | 158 | 3.2 | 3.2 | 0.00 | 0.00 | 0.00 | 64 | 1016.8 |
| 20260902191008 | 33 | 125 | 1.6 | 1.6 | 0.00 | 0.00 | 0.00 | 65 | 1017.0 |
| 20260902190504 | 33 | 128 | 0.0 | 0.0 | 0.00 | 0.00 | 0.00 | 61 | 1016.9 |
| 20260902185959 | 33 | 162 | 1.6 | 1.6 | 0.00 | 0.00 | 0.00 | 63 | 1017.1 |
| 20260902185455 | 33 | 129 | 0.0 | 0.0 | 0.00 | 0.00 | 0.00 | 62 | 1017.1 |
| 20260902184950 | 33 | 126 | 3.2 | 3.2 | 0.00 | 0.00 | 0.00 | 61 | 1017.1 |
| 20260902184445 | 33 | 222 | 1.6 | 1.6 | 0.00 | 0.00 | 0.00 | 62 | 1017.2 |
| 20260902183941 | 33 | 284 | 1.6 | 3.2 | 0.00 | 0.00 | 0.00 | 60 | 1017.2 |
| 20260902183437 | 33 | 130 | 0.0 | 1.6 | 0.00 | 0.00 | 0.00 | 63 | 1017.3 |
| 20260902182933 | 32 | 118 | 1.6 | 1.6 | 0.00 | 0.00 | 0.00 | 63 | 1017.0 |
| 20260902182429 | 33 | 140 | 1.6 | 3.2 | 0.00 | 0.00 | 0.00 | 64 | 1017.5 |
| 20260902181926 | 33 | 137 | 3.2 | 4.8 | 0.00 | 0.00 | 0.00 | 60 | 1017.4 |
| 20260902181421 | 33 | 129 | 1.6 | 1.6 | 0.00 | 0.00 | 0.00 | 70 | 1017.4 |
| 20260902180920 | 33 | 93 | 0.0 | 1.6 | 0.00 | 0.00 | 0.00 | 64 | 1017.4 |
| 20260902180416 | 33 | 299 | 1.6 | 1.6 | 0.00 | 0.00 | 0.00 | 67 | 1017.4 |
| 20260902175911 | 32 | 160 | 1.6 | 1.6 | 0.00 | 0.00 | 0.00 | 65 | 1017.4 |
| 20260902175406 | 32 | 128 | 3.2 | 4.8 | 0.00 | 0.00 | 0.00 | 66 | 1017.6 |
| 20260902174901 | 32 | 125 | 3.2 | 4.8 | 0.00 | 0.00 | 0.00 | 65 | 1018.0 |
| 20260902174359 | 32 | 139 | 1.6 | 1.6 | 0.00 | 0.00 | 0.00 | 66 | 1018.0 |
| 20260902173849 | 32 | 133 | 0.0 | 1.6 | 0.00 | 0.00 | 0.00 | 69 | 1018.0 |
| 20260902173348 | 32 | 126 | 0.0 | 0.0 | 0.00 | 0.00 | 0.00 | 65 | 1018.1 |
| 20260902172843 | 32 | 167 | 1.6 | 1.6 | 0.00 | 0.00 | 0.00 | 67 | 1018.0 |
| 20260902172342 | 31 | 148 | 3.2 | 3.2 | 0.00 | 0.00 | 0.00 | 67 | 1018.0 |
| 20260902171838 | 31 | 135 | 3.2 | 3.2 | 0.00 | 0.00 | 0.00 | 72 | 1018.1 |
| 20260902171333 | 32 | 126 | 1.6 | 1.6 | 0.00 | 0.00 | 0.00 | 69 | 1018.0 |
| 20260902170829 | 32 | 122 | 0.0 | 0.0 | 0.00 | 0.00 | 0.00 | 66 | 1017.9 |
| 20260902170324 | 32 | 104 | 0.0 | 0.0 | 0.00 | 0.00 | 0.00 | 69 | 1018.3 |
| 20260902165820 | 31 | 93 | 1.6 | 3.2 | 0.00 | 0.00 | 0.00 | 69 | 1018.0 |
| 20260902165319 | 31 | 129 | 1.6 | 1.6 | 0.00 | 0.00 | 0.00 | 71 | 1018.1 |
| 20260902164814 | 31 | 108 | 1.6 | 1.6 | 0.00 | 0.00 | 0.00 | 69 | 1018.0 |
| 20260902164309 | 31 | 159 | 3.2 | 4.8 | 0.00 | 0.00 | 0.00 | 67 | 1018.1 |
| 20260902163803 | 31 | 171 | 3.2 | 4.8 | 0.00 | 0.00 | 0.00 | 71 | 1018.1 |
| 20260902163303 | 31 | 134 | 0.0 | 0.0 | 0.00 | 0.00 | 0.00 | 71 | 1018.0 |
| 20260902162802 | 31 | 121 | 1.6 | 3.2 | 0.00 | 0.00 | 0.00 | 70 | 1018.1 |
| 20260902162256 | 31 | 129 | 0.0 | 1.6 | 0.00 | 0.00 | 0.00 | 73 | 1018.2 |
| 20260902161756 | 31 | 161 | 1.6 | 3.2 | 0.00 | 0.00 | 0.00 | 74 | 1018.2 |
| 20260902161252 | 31 | 98 | 0.0 | 1.6 | 0.00 | 0.00 | 0.00 | 69 | 1018.3 |
| 20260902160748 | 31 | 150 | 1.6 | 3.2 | 0.00 | 0.00 | 0.00 | 70 | 1018.2 |
| 20260902160248 | 31 | 164 | 3.2 | 3.2 | 0.00 | 0.00 | 0.00 | 70 | 1018.3 |
| 20260902155746 | 31 | 159 | 1.6 | 3.2 | 0.00 | 0.00 | 0.00 | 71 | 1018.2 |
| 20260902155245 | 31 | 108 | 0.0 | 1.6 | 0.00 | 0.00 | 0.00 | 70 | 1018.2 |
| 20260902154741 | 31 | 138 | 0.0 | 0.0 | 0.00 | 0.00 | 0.00 | 69 | 1018.4 |
| 20260902154237 | 31 | 152 | 3.2 | 3.2 | 0.00 | 0.00 | 0.00 | 71 | 1018.4 |
| 20260902153735 | 31 | 183 | 0.0 | 0.0 | 0.00 | 0.00 | 0.00 | 69 | 1018.2 |
| 20260902153235 | 30 | 112 | 1.6 | 1.6 | 0.00 | 0.00 | 0.00 | 70 | 1018.3 |
| 20260902152731 | 30 | 139 | 3.2 | 3.2 | 0.00 | 0.00 | 0.00 | 69 | 1018.2 |
| 20260902152227 | 30 | 357 | 0.0 | 1.6 | 0.00 | 0.00 | 0.00 | 71 | 1018.3 |
| 20260902151722 | 30 | 113 | 0.0 | 0.0 | 0.00 | 0.00 | 0.00 | 73 | 1018.3 |
| 20260902151217 | 30 | 133 | 0.0 | 1.6 | 0.00 | 0.00 | 0.00 | 72 | 1018.2 |
| 20260902150712 | 30 | 131 | 1.6 | 1.6 | 0.00 | 0.00 | 0.00 | 74 | 1018.2 |
| 20260902150208 | 30 | 141 | 0.0 | 0.0 | 0.00 | 0.00 | 0.00 | 72 | 1018.3 |
| 20260902145707 | 30 | 107 | 1.6 | 1.6 | 0.00 | 0.00 | 0.00 | 74 | 1018.1 |
| 20260902145207 | 29 | 163 | 1.6 | 3.2 | 0.00 | 0.00 | 0.00 | 76 | 1018.3 |
| 20260902144704 | 29 | 105 | 0.0 | 0.0 | 0.00 | 0.00 | 0.00 | 74 | 1018.3 |
| 20260902144159 | 29 | 108 | 0.0 | 0.0 | 0.00 | 0.00 | 0.00 | 75 | 1018.3 |
| 20260902143653 | 29 | 111 | 1.6 | 1.6 | 0.00 | 0.00 | 0.00 | 78 | 1018.2 |
| 20260902143148 | 28 | 103 | 1.6 | 1.6 | 0.00 | 0.00 | 0.00 | 76 | 1018.3 |
| 20260902142644 | 28 | 116 | 0.0 | 1.6 | 0.00 | 0.00 | 0.00 | 80 | 1018.1 |
| 20260902142140 | 27 | 119 | 0.0 | 0.0 | 0.00 | 0.00 | 0.00 | 82 | 1017.9 |
| 20260902141639 | 27 | 112 | 0.0 | 1.6 | 0.00 | 0.00 | 0.00 | 82 | 1018.1 |
| 20260902141135 | 27 | 110 | 0.0 | 0.0 | 0.00 | 0.00 | 0.00 | 82 | 1018.0 |
| 20260902140630 | 28 | 146 | 0.0 | 1.6 | 0.00 | 0.00 | 0.00 | 80 | 1017.8 |
| 20260902140125 | 28 | 110 | 0.0 | 0.0 | 0.00 | 0.00 | 0.00 | 80 | 1018.0 |
| 20260902135624 | 28 | 108 | 0.0 | 0.0 | 0.00 | 0.00 | 0.00 | 80 | 1017.9 |
| 20260902135119 | 28 | 135 | 1.6 | 1.6 | 0.00 | 0.00 | 0.00 | 80 | 1017.8 |
| 20260902134615 | 28 | 108 | 0.0 | 0.0 | 0.00 | 0.00 | 0.00 | 77 | 1018.0 |
| 20260902134109 | 28 | 126 | 0.0 | 0.0 | 0.00 | 0.00 | 0.00 | 80 | 1018.1 |
| 20260902133604 | 27 | 118 | 0.0 | 1.6 | 0.00 | 0.00 | 0.00 | 81 | 1018.2 |
| 20260902133059 | 27 | 115 | 0.0 | 0.0 | 0.00 | 0.00 | 0.00 | 83 | 1018.0 |
| 20260902132554 | 26 | 132 | 1.6 | 1.6 | 0.00 | 0.00 | 0.00 | 83 | 1018.1 |
| 20260902132049 | 25 | 113 | 0.0 | 0.0 | 0.00 | 0.00 | 0.00 | 87 | 1018.1 |
| 20260902131546 | 25 | 117 | 0.0 | 1.6 | 0.00 | 0.00 | 0.00 | 90 | 1018.3 |
| 20260902131045 | 25 | 113 | 0.0 | 0.0 | 0.00 | 0.00 | 0.00 | 90 | 1018.1 |
| 20260902130541 | 25 | 114 | 0.0 | 0.0 | 0.00 | 0.00 | 0.00 | 91 | 1018.0 |
| 20260902130036 | 25 | 117 | 0.0 | 0.0 | 0.00 | 0.00 | 0.00 | 89 | 1018.0 |
| 20260902125532 | 25 | 114 | 0.0 | 0.0 | 0.00 | 0.00 | 0.00 | 89 | 1018.0 |
| 20260902125027 | 25 | 112 | 0.0 | 0.0 | 0.00 | 0.00 | 0.00 | 89 | 1017.9 |
| 20260902124524 | 24 | 112 | 0.0 | 0.0 | 0.00 | 0.00 | 0.00 | 92 | 1018.0 |
| 20260902124018 | 24 | 111 | 0.0 | 0.0 | 0.00 | 0.00 | 0.00 | 91 | 1017.9 |
| 20260902123514 | 23 | 111 | 0.0 | 0.0 | 0.00 | 0.00 | 0.00 | 90 | 1017.8 |
| 20260902123014 | 23 | 111 | 0.0 | 0.0 | 0.00 | 0.00 | 0.00 | 96 | 1017.8 |
| 20260902122509 | 23 | 111 | 0.0 | 0.0 | 0.00 | 0.00 | 0.00 | 97 | 1017.8 |
| 20260902122004 | 22 | 111 | 0.0 | 0.0 | 0.00 | 0.00 | 0.00 | 98 | 1017.7 |
| 20260902121459 | 22 | 111 | 0.0 | 0.0 | 0.00 | 0.00 | 0.00 | 99 | 1017.8 |
| 20260902120954 | 22 | 113 | 0.0 | 0.0 | 0.00 | 0.00 | 0.00 | 99 | 1017.6 |
| 20260902120450 | 21 | 113 | 0.0 | 0.0 | 0.00 | 0.00 | 0.00 | 99 | 1017.7 |
| 20260902115950 | 21 | 112 | 0.0 | 0.0 | 0.00 | 0.00 | 0.00 | 99 | 1017.6 |
| 20260902115446 | 21 | 115 | 0.0 | 0.0 | 0.00 | 0.00 | 0.00 | 99 | 1017.7 |
| 20260902114942 | 21 | 113 | 0.0 | 0.0 | 0.00 | 0.00 | 0.00 | 99 | 1017.6 |
| 20260902114432 | 21 | 113 | 0.0 | 0.0 | 0.00 | 0.00 | 0.00 | 99 | 1017.6 |
| 20260902113927 | 21 | 108 | 0.0 | 0.0 | 0.00 | 0.00 | 0.00 | 99 | 1017.5 |
| 20260902113423 | 21 | 105 | 0.0 | 0.0 | 0.00 | 0.00 | 0.00 | 99 | 1017.5 |
| 20260902112922 | 21 | 106 | 0.0 | 0.0 | 0.00 | 0.00 | 0.00 | 99 | 1017.5 |
| 20260902112419 | 21 | 106 | 0.0 | 0.0 | 0.00 | 0.00 | 0.00 | 99 | 1017.3 |
| 20260902111914 | 21 | 106 | 0.0 | 0.0 | 0.00 | 0.00 | 0.00 | 99 | 1017.5 |
| 20260902111410 | 21 | 106 | 0.0 | 0.0 | 0.00 | 0.00 | 0.00 | 99 | 1017.4 |
| 20260902110906 | 21 | 102 | 0.0 | 0.0 | 0.00 | 0.00 | 0.00 | 99 | 1017.2 |
| 20260902110402 | 21 | 114 | 0.0 | 0.0 | 0.00 | 0.00 | 0.00 | 99 | 1017.2 |
| 20260902105901 | 21 | 113 | 0.0 | 0.0 | 0.00 | 0.00 | 0.00 | 99 | 1017.2 |
| 20260902105356 | 21 | 113 | 0.0 | 0.0 | 0.00 | 0.00 | 0.00 | 99 | 1017.2 |
| 20260902104851 | 21 | 107 | 0.0 | 0.0 | 0.00 | 0.00 | 0.00 | 99 | 1017.1 |
| 20260902104347 | 21 | 107 | 0.0 | 0.0 | 0.00 | 0.00 | 0.00 | 99 | 1017.0 |
| 20260902103842 | 21 | 114 | 0.0 | 0.0 | 0.00 | 0.00 | 0.00 | 99 | 1017.2 |
| 20260902103337 | 21 | 114 | 0.0 | 0.0 | 0.00 | 0.00 | 0.00 | 99 | 1017.2 |
| 20260902102832 | 21 | 111 | 0.0 | 0.0 | 0.00 | 0.00 | 0.00 | 99 | 1017.2 |
| 20260902102330 | 21 | 114 | 0.0 | 0.0 | 0.00 | 0.00 | 0.00 | 99 | 1017.2 |
| 20260902101824 | 21 | 112 | 0.0 | 0.0 | 0.00 | 0.00 | 0.00 | 99 | 1017.1 |
| 20260902101324 | 21 | 122 | 0.0 | 0.0 | 0.00 | 0.00 | 0.00 | 99 | 1017.2 |
| 20260902100818 | 21 | 112 | 0.0 | 0.0 | 0.00 | 0.00 | 0.00 | 99 | 1017.2 |
| 20260902100319 | 21 | 112 | 0.0 | 0.0 | 0.00 | 0.00 | 0.00 | 99 | 1017.1 |
| 20260902095814 | 21 | 105 | 0.0 | 0.0 | 0.00 | 0.00 | 0.00 | 99 | 1017.1 |
| 20260902095313 | 21 | 113 | 0.0 | 0.0 | 0.00 | 0.00 | 0.00 | 99 | 1017.1 |
| 20260902094808 | 21 | 115 | 0.0 | 0.0 | 0.00 | 0.00 | 0.00 | 99 | 1017.2 |
| 20260902094304 | 21 | 117 | 0.0 | 0.0 | 0.00 | 0.00 | 0.00 | 99 | 1017.1 |
| 20260902093803 | 21 | 120 | 0.0 | 0.0 | 0.00 | 0.00 | 0.00 | 99 | 1017.3 |
| 20260902093259 | 21 | 119 | 0.0 | 0.0 | 0.00 | 0.00 | 0.00 | 99 | 1017.2 |
| 20260902092758 | 21 | 109 | 0.0 | 0.0 | 0.00 | 0.00 | 0.00 | 99 | 1017.2 |
| 20260902092253 | 21 | 106 | 0.0 | 0.0 | 0.00 | 0.00 | 0.00 | 99 | 1017.2 |
| 20260902091752 | 21 | 110 | 0.0 | 0.0 | 0.00 | 0.00 | 0.00 | 99 | 1017.2 |
| 20260902091249 | 21 | 111 | 0.0 | 0.0 | 0.00 | 0.00 | 0.00 | 98 | 1017.2 |
| 20260902090745 | 21 | 111 | 0.0 | 0.0 | 0.00 | 0.00 | 0.00 | 99 | 1017.2 |
| 20260902090245 | 21 | 109 | 0.0 | 0.0 | 0.00 | 0.00 | 0.00 | 98 | 1017.3 |
| 20260902085744 | 22 | 110 | 0.0 | 0.0 | 0.00 | 0.00 | 0.00 | 98 | 1017.3 |
| 20260902085240 | 22 | 109 | 0.0 | 0.0 | 0.00 | 0.00 | 0.00 | 98 | 1017.4 |
| 20260902084735 | 22 | 114 | 0.0 | 0.0 | 0.00 | 0.00 | 0.00 | 98 | 1017.3 |
| 20260902084232 | 22 | 112 | 0.0 | 0.0 | 0.00 | 0.00 | 0.00 | 98 | 1017.3 |
| 20260902083731 | 22 | 114 | 0.0 | 0.0 | 0.00 | 0.00 | 0.00 | 98 | 1017.2 |
| 20260902083226 | 22 | 111 | 0.0 | 0.0 | 0.00 | 0.00 | 0.00 | 98 | 1017.0 |
| 20260902082721 | 22 | 111 | 0.0 | 0.0 | 0.00 | 0.00 | 0.00 | 97 | 1017.0 |
| 20260902082218 | 22 | 111 | 0.0 | 0.0 | 0.00 | 0.00 | 0.00 | 97 | 1017.0 |
| 20260902081714 | 22 | 111 | 0.0 | 0.0 | 0.00 | 0.00 | 0.00 | 97 | 1017.0 |
| 20260902081209 | 22 | 111 | 0.0 | 0.0 | 0.00 | 0.00 | 0.00 | 97 | 1017.1 |
| 20260902080704 | 22 | 111 | 0.0 | 0.0 | 0.00 | 0.00 | 0.00 | 96 | 1017.1 |
| 20260902080200 | 22 | 110 | 0.0 | 0.0 | 0.00 | 0.00 | 0.00 | 96 | 1017.0 |
| 20260902075655 | 22 | 112 | 0.0 | 0.0 | 0.00 | 0.00 | 0.00 | 96 | 1017.0 |
| 20260902075150 | 22 | 108 | 0.0 | 0.0 | 0.00 | 0.00 | 0.00 | 96 | 1017.1 |
| 20260902074645 | 22 | 121 | 0.0 | 0.0 | 0.00 | 0.00 | 0.00 | 96 | 1016.9 |
| 20260902074140 | 22 | 114 | 0.0 | 0.0 | 0.00 | 0.00 | 0.00 | 97 | 1017.0 |